Location: Goll?ig?dem
(16.6773°N, 80.7332°E)
Time: 17:00:07
(UTC+00:00)

Cosmos 1709 Rocket - Pass Details

Date: 19 May 2025
Orbit: 948 x 999 km, 82.9° (Epoch: 12 June)

Event Time Altitude Azimuth Distance (km) Brightness Sun altitude
Rises 13:43:14 0° 6° (N) 3,709 7.3 -9.9°
Reaches altitude 10° 13:45:54 10° 13° (NNE) 2,762 6.5 -10.5°
Maximum altitude 13:51:55 44° 84° (E) 1,344 4.4 -11.8°
Drops below altitude 10° 13:57:54 10° 155° (SSE) 2,757 5.9 -13.1°
Enters shadow 13:58:33 - 157° (SSE) 2,982 6.1 -13.2°
